Location: Saluda
(35.2377°N, 82.3468°W)
Time: 08:20:24
(UTC+00:00)

Tiros 1 despin weight - Pass Details

Date: 07 October 2022
Orbit: 590 x 637 km, 48.2° (Epoch: 02 December)

Event Time Altitude Azimuth Distance (km) Brightness Sun altitude
Rises 00:10:11 0° 310° (NW) 2,872 ? -13.9°
Reaches altitude 10° 00:12:56 10° 326° (NNW) 1,976 ? -14.5°
Maximum altitude 00:16:28 22° 18° (NNE) 1,372 ? -15.2°
Enters shadow 00:18:21 17° 50° (NE) 1,573 ? -15.6°
